FW4407 Weather Reports


Display with metric or nautical units.
time (UTC)temp
F
wind
direction
speed
MPH
gust
MPH
rain 1hr
in
rain 24hr
in
rain mn
in
humidity
%
barometer
mb
20260502190528 51 25 4.0 10.0 0.00 0.03 0.03 50 1015.6
20260502185517 51 16 2.0 8.0 0.00 0.03 0.03 50 1015.6
20260502184521 51 18 3.0 8.0 0.00 0.03 0.03 50 1015.7
20260502183526 51 24 3.0 8.0 0.00 0.03 0.03 49 1015.7
20260502182532 51 359 1.0 5.0 0.00 0.03 0.03 50 1015.5
20260502181519 51 26 3.0 10.0 0.00 0.03 0.03 50 1015.2
20260502180524 51 17 2.0 10.0 0.00 0.03 0.03 50 1015.4
20260502170520 53 12 4.0 13.0 0.00 0.03 0.03 47 1015.3
20260502163518 54 17 4.0 10.0 0.00 0.03 0.03 46 1015.2
20260502162543 54 13 7.0 15.0 0.00 0.03 0.03 45 1015.3
20260502161528 54 15 5.0 13.0 0.00 0.03 0.03 44 1015.2
20260502160536 54 21 7.0 15.0 0.00 0.03 0.03 44 1015.4
20260502151524 55 25 8.0 20.0 0.00 0.03 0.03 45 1015.6
20260502150529 54 33 6.0 17.0 0.00 0.03 0.03 44 1015.5
20260502130541 54 18 11.0 25.0 0.00 0.03 0.03 42 1015.9
20260502123519 54 18 13.0 28.0 0.00 0.03 0.03 45 1016.2
20260502122524 55 27 11.0 23.0 0.00 0.03 0.03 45 1016.2
20260502121529 55 4 9.0 20.0 0.00 0.03 0.03 43 1016.0
20260502120517 55 21 12.0 28.0 0.00 0.03 0.03 44 1016.0
20260502115522 54 10 10.0 25.0 0.00 0.03 0.03 45 1016.0
20260502114527 54 16 12.0 25.0 0.00 0.03 0.03 47 1016.2
20260502113515 54 24 9.0 20.0 0.00 0.03 0.03 48 1016.2
20260502112520 54 357 12.0 25.0 0.00 0.03 0.03 48 1016.2
20260502111525 53 7 3.0 13.0 0.00 0.03 0.03 51 1016.2
20260502110550 53 14 5.0 10.0 0.00 0.03 0.03 55 1016.4
20260502105518 53 42 5.0 15.0 0.00 0.03 0.03 55 1016.5
20260502104523 53 34 6.0 20.0 0.00 0.03 0.03 53 1016.6
20260502103528 53 93 7.0 17.0 0.00 0.03 0.03 54 1016.8
20260502102516 53 51 6.0 15.0 0.00 0.03 0.03 55 1016.6
20260502101521 52 1 8.0 23.0 0.00 0.03 0.03 55 1016.9
20260502100526 52 27 7.0 15.0 0.00 0.03 0.03 59 1016.9
20260502091517 52 27 6.0 17.0 0.00 0.03 0.03 59 1016.7
20260502090522 52 11 8.0 17.0 0.00 0.03 0.03 59 1016.8
20260502071526 53 20 7.0 25.0 0.00 0.03 0.03 59 1016.6
20260502070531 53 30 6.0 13.0 0.00 0.03 0.03 58 1016.7
20260502065519 52 20 6.0 25.0 0.00 0.03 0.03 57 1016.4
20260502064524 52 73 7.0 23.0 0.00 0.03 0.03 59 1016.4
20260502063529 53 37 8.0 23.0 0.00 0.03 0.03 60 1016.6
20260502062517 53 22 12.0 23.0 0.00 0.03 0.03 59 1016.4
20260502061522 53 20 7.0 20.0 0.00 0.03 0.03 59 1016.4
20260502060527 52 91 8.0 23.0 0.00 0.03 0.03 59 1016.4
20260502055531 52 59 8.0 23.0 0.00 0.03 0.03 58 1016.4
20260502054520 51 24 6.0 15.0 0.00 0.03 0.03 62 1016.3
20260502053525 51 15 5.0 17.0 0.00 0.03 0.03 65 1016.5
20260502052530 51 9 8.0 17.0 0.00 0.03 0.03 65 1016.5
20260502051538 51 4 5.0 10.0 0.00 0.03 0.03 66 1016.5
20260502050523 50 12 7.0 20.0 0.00 0.03 0.03 66 1016.3
20260502045548 50 21 5.0 15.0 0.00 0.03 0.03 68 1016.4
20260502044536 50 2 7.0 17.0 0.00 0.03 0.03 68 1016.5
20260502043541 50 7 7.0 17.0 0.00 0.03 0.03 69 1016.5
20260502042526 50 34 5.0 15.0 0.00 0.03 0.03 70 1016.5
20260502041530 49 6 5.0 15.0 0.03 0.03 0.03 71 1016.5
20260502040519 49 22 3.0 15.0 0.03 0.03 0.03 73 1016.5
20260502035523 49 41 3.0 10.0 0.03 0.03 0.03 73 1016.5
20260502034528 49 68 3.0 10.0 0.03 0.04 0.03 77 1016.3
20260502033517 50 6 3.0 10.0 0.03 0.04 0.03 79 1016.2
20260502032542 50 4 3.0 10.0 0.03 0.04 0.03 77 1016.2
20260502031547 51 108 2.0 8.0 0.00 0.01 0.00 73 1016.2
20260502030531 51 64 4.0 13.0 0.00 0.01 0.00 71 1016.2
20260502025518 51 15 3.0 10.0 0.00 0.01 0.00 71 1016.2
20260502024523 51 63 3.0 10.0 0.00 0.01 0.00 69 1016.3
20260502023527 51 14 3.0 10.0 0.00 0.01 0.00 68 1016.2
20260502022515 51 14 5.0 10.0 0.00 0.01 0.00 68 1016.1
20260502021521 51 93 2.0 8.0 0.00 0.01 0.00 68 1016.2
20260502020525 51 358 2.0 8.0 0.00 0.01 0.00 67 1016.2
20260502015530 51 37 2.0 8.0 0.00 0.01 0.00 68 1016.3
20260502014519 51 25 2.0 8.0 0.00 0.01 0.00 69 1016.4
20260502013524 51 22 3.0 10.0 0.00 0.01 0.00 70 1016.3
20260502012529 51 13 3.0 13.0 0.00 0.01 0.00 70 1016.4
20260502011516 51 15 4.0 13.0 0.00 0.01 0.00 70 1016.5
20260502010522 51 10 2.0 10.0 0.00 0.01 0.00 70 1016.5
20260502005546 51 49 4.0 10.0 0.00 0.01 0.00 70 1016.3
20260502004531 51 54 3.0 10.0 0.00 0.01 0.00 69 1016.3
20260502003519 51 8 4.0 10.0 0.00 0.01 0.00 67 1016.3
20260502002524 51 15 5.0 15.0 0.00 0.01 0.00 67 1016.5
20260502001529 51 104 2.0 5.0 0.00 0.01 0.00 70 1016.6
20260502000518 51 12 4.0 15.0 0.00 0.01 0.00 70 1016.7
20260501235542 51 14 5.0 17.0 0.00 0.01 0.00 69 1016.8
20260501234527 51 16 3.0 8.0 0.00 0.01 0.00 69 1016.9
20260501233515 51 24 4.0 17.0 0.00 0.02 0.00 69 1016.9
20260501232520 51 27 5.0 15.0 0.00 0.02 0.00 70 1016.9
20260501231526 51 40 3.0 10.0 0.00 0.02 0.00 69 1016.9
20260501230530 51 29 4.0 13.0 0.00 0.02 0.00 70 1017.0
20260501225538 51 12 4.0 13.0 0.00 0.02 0.00 70 1017.1
20260501224524 51 15 4.0 10.0 0.00 0.02 0.00 70 1017.3
20260501223529 52 43 2.0 10.0 0.00 0.02 0.00 69 1017.4
20260501222536 52 7 5.0 15.0 0.00 0.02 0.00 70 1017.7
20260501221522 52 11 4.0 13.0 0.00 0.02 0.00 70 1017.6
20260501220527 52 13 4.0 10.0 0.00 0.02 0.00 69 1017.7
20260501215528 52 20 5.0 20.0 0.00 0.02 0.00 69 1017.6
20260501214515 52 30 5.0 17.0 0.00 0.02 0.00 69 1017.6
20260501213520 52 88 4.0 13.0 0.00 0.02 0.00 69 1017.8
20260501212525 52 60 3.0 10.0 0.00 0.02 0.00 70 1017.9
20260501211531 52 8 4.0 17.0 0.00 0.02 0.00 69 1017.8
20260501210518 52 354 4.0 13.0 0.00 0.02 0.00 69 1017.9
20260501205523 52 16 5.0 13.0 0.00 0.02 0.02 69 1017.9
20260501204549 52 38 5.0 17.0 0.00 0.02 0.02 68 1017.8
20260501203517 52 122 3.0 10.0 0.00 0.02 0.02 68 1017.6
20260501202521 52 116 5.0 15.0 0.00 0.02 0.02 68 1017.7
20260501201526 53 109 4.0 10.0 0.00 0.02 0.02 68 1017.5
20260501200611 53 84 3.0 10.0 0.00 0.02 0.02 68 1017.5
20260501195539 53 73 4.0 15.0 0.00 0.02 0.02 68 1017.6
20260501194524 53 125 3.0 13.0 0.00 0.02 0.02 68 1017.7
20260501193530 53 96 3.0 8.0 0.00 0.02 0.02 69 1017.6
20260501192517 53 107 6.0 17.0 0.00 0.02 0.02 69 1017.6
20260501191542 53 17 5.0 13.0 0.00 0.02 0.02 69 1017.4